Location: ??
(35.4627°N, 139.3695°E)
Time: 14:26:19
(UTC+00:00)

Cosmos 1844 - Pass Details

Date: 25 November 2020
Orbit: 821 x 869 km, 70.9° (Epoch: 20 January)

Event Time Altitude Azimuth Distance (km) Brightness Sun altitude
Rises 20:33:33 0° 196° (SSW) 3,342 6.8 -11.2°
Reaches altitude 10° 20:35:58 10° 194° (SSW) 2,410 6.1 -10.8°
Maximum altitude 20:41:28 77° 110° (ESE) 845 3.9 -9.7°
Drops below altitude 10° 20:47:01 10° 25° (NNE) 2,425 6.2 -8.7°
Sets 20:49:27 0° 24° (NNE) 3,365 6.9 -8.2°
